Location: Great Chart
(51.1333°N, 0.8333°E)
Time: 11:13:49
(UTC+00:00)

USA 234 - Pass Details

Date: 19 September 2020
Orbit: 1102 x 1106 km, 123.0° (Epoch: 16 October)

Event Time Altitude Azimuth Distance (km) Brightness Sun altitude
Rises 01:25:51 0° 103° (ESE) 3,916 6.3 -33.7°
Reaches altitude 10° 01:28:20 10° 101° (ESE) 2,959 5.7 -33.5°
Maximum altitude 01:34:49 70° 20° (NNE) 1,172 3.4 -33.0°
Enters shadow 01:37:55 33° 307° (NW) 1,753 4.3 -32.8°
Exits shadow 01:42:00 - 298° (WNW) 3,226 5.6 -32.4°
Sets 01:43:49 0° 297° (WNW) 3,927 6.1 -32.3°
